QPF
0.00 0.00 0.00 0.00 0.00 0.00 0.00 0.00 0.00 0.00 0.00 0.00 0.00 0.00 0.00 0.00 0.00 0.01 0.01 0.01 0.01 0.01 0.01 0.02 0.02 0.02 0.02 0.02 0.02 0.02 0.01 0.01 0.01 0.02 0.04 0.05 0.03 0.02 0.02 0.02 0.02 0.02 0.01 0.01
0.00 0.00 0.00 0.00 0.00 0.00 0.00 0.00 0.00 0.00 0.00 0.00 0.00 0.00 0.00 0.00 0.00 0.01 0.02 0.02 0.02 0.02 0.02 0.02 0.02 0.02 0.02 0.03 0.02 0.02 0.02 0.03 0.03 0.04 0.05 0.05 0.04 0.04 0.05 0.04 0.04 0.04 0.04 0.03
0.00 0.00 0.00 0.00 0.00 0.00 0.00 0.00 0.00 0.00 0.00 0.00 0.00 0.00 0.01 0.01 0.01 0.01 0.02 0.03 0.05 0.04 0.04 0.03 0.03 0.02 0.03 0.03 0.02 0.02 0.03 0.04 0.05 0.05 0.05 0.05 0.05 0.04 0.05 0.06 0.05 0.04 0.03 0.03
0.00 0.00 0.00 0.00 0.00 0.00 0.00 0.00 0.00 0.00 0.00 0.00 0.00 0.01 0.02 0.02 0.02 0.02 0.02 0.02 0.05 0.06 0.04 0.04 0.03 0.03 0.03 0.03 0.02 0.03 0.04 0.05 0.04 0.05 0.05 0.05 0.05 0.04 0.05 0.06 0.06 0.05 0.05 0.05
0.00 0.01 0.00 0.00 0.00 0.00 0.01 0.00 0.00 0.00 0.00 0.01 0.01 0.02 0.01 0.01 0.02 0.02 0.02 0.02 0.03 0.04 0.05 0.05 0.03 0.03 0.03 0.02 0.03 0.03 0.04 0.04 0.04 0.04 0.04 0.03 0.03 0.04 0.04 0.04 0.05 0.07 0.06 0.04
0.01 0.01 0.01 0.00 0.01 0.01 0.02 0.02 0.01 0.01 0.01 0.02 0.02 0.02 0.01 0.02 0.02 0.03 0.03 0.03 0.03 0.02 0.03 0.05 0.04 0.03 0.03 0.03 0.04 0.03 0.03 0.03 0.03 0.03 0.03 0.03 0.04 0.04 0.04 0.04 0.04 0.06 0.06 0.05
0.00 0.00 0.00 0.00 0.02 0.03 0.02 0.02 0.03 0.03 0.03 0.03 0.02 0.02 0.03 0.03 0.02 0.02 0.02 0.02 0.02 0.01 0.02 0.03 0.04 0.03 0.03 0.04 0.03 0.02 0.02 0.03 0.02 0.02 0.03 0.04 0.05 0.05 0.06 0.06 0.07 0.08 0.08 0.08
0.01 0.01 0.01 0.01 0.04 0.05 0.05 0.04 0.04 0.03 0.03 0.03 0.03 0.02 0.02 0.02 0.02 0.02 0.02 0.02 0.01 0.01 0.02 0.02 0.03 0.02 0.03 0.02 0.02 0.02 0.02 0.02 0.02 0.03 0.03 0.04 0.05 0.07 0.08 0.09 0.09 0.10 0.10 0.08
0.01 0.01 0.01 0.02 0.04 0.05 0.06 0.05 0.04 0.03 0.03 0.03 0.03 0.02 0.02 0.03 0.02 0.03 0.02 0.01 0.01 0.01 0.01 0.02 0.02 0.02 0.02 0.02 0.01 0.02 0.02 0.02 0.02 0.03 0.04 0.04 0.06 0.08 0.10 0.09 0.09 0.08 0.08 0.08
0.01 0.03 0.03 0.03 0.03 0.03 0.04 0.04 0.03 0.04 0.03 0.03 0.03 0.02 0.03 0.04 0.03 0.03 0.01 0.01 0.01 0.01 0.01 0.01 0.01 0.01 0.01 0.01 0.01 0.01 0.01 0.02 0.02 0.02 0.03 0.03 0.04 0.06 0.07 0.08 0.08 0.07 0.07 0.08
0.02 0.02 0.02 0.02 0.02 0.02 0.03 0.03 0.03 0.03 0.04 0.04 0.03 0.03 0.03 0.04 0.03 0.02 0.01 0.01 0.02 0.02 0.02 0.02 0.02 0.01 0.01 0.01 0.01 0.01 0.02 0.02 0.02 0.03 0.04 0.05 0.06 0.07 0.07 0.07 0.08 0.08 0.06 0.05
0.02 0.01 0.02 0.03 0.02 0.03 0.03 0.03 0.03 0.04 0.04 0.04 0.03 0.02 0.03 0.04 0.04 0.04 0.05 0.06 0.07 0.04 0.03 0.03 0.03 0.02 0.01 0.02 0.02 0.02 0.02 0.03 0.03 0.04 0.05 0.07 0.08 0.08 0.08 0.08 0.08 0.07 0.06 0.05
0.01 0.01 0.01 0.03 0.02 0.04 0.05 0.04 0.03 0.04 0.04 0.04 0.03 0.04 0.05 0.07 0.07 0.06 0.06 0.06 0.05 0.05 0.04 0.04 0.03 0.03 0.02 0.02 0.03 0.04 0.04 0.04 0.04 0.05 0.06 0.07 0.06 0.07 0.08 0.07 0.05 0.04 0.02 0.02
0.01 0.01 0.02 0.03 0.03 0.04 0.06 0.07 0.05 0.03 0.03 0.02 0.02 0.04 0.06 0.07 0.07 0.07 0.05 0.04 0.05 0.05 0.04 0.04 0.03 0.03 0.05 0.05 0.05 0.05 0.04 0.04 0.05 0.05 0.05 0.06 0.05 0.05 0.05 0.03 0.02 0.01 0.01 0.01
0.01 0.01 0.02 0.03 0.04 0.04 0.06 0.07 0.06 0.04 0.04 0.04 0.04 0.03 0.03 0.04 0.05 0.06 0.05 0.06 0.07 0.06 0.09 0.08 0.05 0.07 0.08 0.06 0.04 0.04 0.04 0.04 0.05 0.05 0.05 0.04 0.04 0.03 0.03 0.02 0.02 0.01 0.01 0.01
0.02 0.02 0.02 0.03 0.05 0.05 0.06 0.06 0.05 0.04 0.04 0.04 0.03 0.02 0.02 0.01 0.02 0.03 0.04 0.07 0.11 0.10 0.12 0.12 0.10 0.09 0.08 0.07 0.06 0.07 0.05 0.05 0.04 0.03 0.03 0.03 0.03 0.04 0.03 0.02 0.02 0.01 0.01 0.00
0.04 0.03 0.03 0.04 0.06 0.08 0.08 0.06 0.05 0.05 0.04 0.04 0.02 0.02 0.02 0.01 0.01 0.01 0.01 0.03 0.10 0.16 0.18 0.16 0.14 0.14 0.13 0.09 0.07 0.08 0.06 0.04 0.02 0.02 0.02 0.02 0.02 0.02 0.02 0.02 0.01 0.02 0.01 0.01
0.04 0.03 0.03 0.04 0.05 0.06 0.07 0.06 0.05 0.05 0.04 0.03 0.02 0.02 0.01 0.01 0.01 0.01 0.01 0.03 0.05 0.09 0.14 0.16 0.15 0.16 0.17 0.14 0.10 0.09 0.06 0.03 0.02 0.01 0.01 0.02 0.02 0.02 0.02 0.02 0.02 0.03 0.02 0.01
0.03 0.03 0.04 0.04 0.05 0.05 0.06 0.06 0.04 0.03 0.03 0.03 0.01 0.01 0.01 0.01 0.01 0.01 0.02 0.04 0.05 0.05 0.07 0.08 0.11 0.14 0.17 0.16 0.12 0.08 0.05 0.04 0.03 0.03 0.02 0.03 0.03 0.03 0.04 0.03 0.02 0.02 0.02 0.01
0.03 0.03 0.04 0.05 0.05 0.05 0.05 0.04 0.03 0.03 0.02 0.02 0.02 0.02 0.02 0.01 0.01 0.02 0.04 0.06 0.06 0.05 0.06 0.08 0.08 0.09 0.12 0.14 0.10 0.07 0.05 0.04 0.04 0.04 0.04 0.04 0.05 0.06 0.06 0.05 0.03 0.03 0.03 0.02
0.02 0.02 0.03 0.03 0.04 0.03 0.04 0.05 0.04 0.03 0.02 0.02 0.03 0.03 0.03 0.02 0.02 0.04 0.05 0.04 0.05 0.07 0.07 0.08 0.06 0.05 0.05 0.08 0.11 0.08 0.05 0.05 0.05 0.05 0.06 0.06 0.06 0.06 0.05 0.05 0.05 0.06 0.04 0.02
0.03 0.02 0.03 0.03 0.03 0.03 0.03 0.04 0.04 0.03 0.02 0.03 0.04 0.03 0.03 0.03 0.03 0.06 0.06 0.05 0.05 0.06 0.05 0.05 0.04 0.04 0.04 0.05 0.08 0.11 0.08 0.06 0.06 0.05 0.05 0.05 0.05 0.05 0.04 0.05 0.06 0.05 0.04 0.02
0.04 0.04 0.05 0.05 0.05 0.04 0.04 0.04 0.04 0.04 0.04 0.05 0.04 0.03 0.03 0.04 0.04 0.04 0.05 0.06 0.05 0.04 0.03 0.03 0.04 0.05 0.05 0.04 0.04 0.05 0.06 0.06 0.05 0.04 0.04 0.04 0.04 0.05 0.05 0.06 0.07 0.05 0.04 0.02
0.04 0.05 0.08 0.08 0.07 0.05 0.04 0.04 0.05 0.05 0.04 0.03 0.02 0.02 0.02 0.02 0.03 0.05 0.05 0.05 0.04 0.03 0.03 0.03 0.03 0.04 0.04 0.03 0.02 0.02 0.03 0.04 0.04 0.03 0.03 0.04 0.05 0.05 0.05 0.06 0.06 0.05 0.04 0.03
0.04 0.05 0.06 0.07 0.06 0.06 0.05 0.05 0.05 0.04 0.03 0.02 0.02 0.02 0.01 0.02 0.03 0.04 0.04 0.04 0.04 0.04 0.04 0.05 0.05 0.05 0.04 0.03 0.02 0.02 0.03 0.03 0.03 0.02 0.02 0.02 0.03 0.04 0.04 0.05 0.05 0.05 0.06 0.06
0.04 0.03 0.04 0.05 0.06 0.06 0.04 0.04 0.04 0.04 0.03 0.02 0.02 0.02 0.01 0.01 0.02 0.03 0.03 0.04 0.03 0.03 0.04 0.05 0.06 0.06 0.05 0.04 0.04 0.04 0.04 0.04 0.04 0.03 0.02 0.01 0.01 0.01 0.01 0.01 0.02 0.03 0.04 0.04
0.04 0.03 0.04 0.04 0.04 0.04 0.04 0.05 0.05 0.05 0.04 0.03 0.03 0.02 0.01 0.01 0.02 0.03 0.03 0.03 0.02 0.01 0.01 0.01 0.02 0.02 0.02 0.03 0.02 0.02 0.02 0.02 0.03 0.02 0.02 0.01 0.01 0.01 0.01 0.01 0.01 0.01 0.01 0.01
MSLP
1015.05 1014.69 1014.35 1014.02 1013.69 1013.32 1012.88 1012.33 1011.66 1010.86 1009.96 1008.99 1008.02 1007.08 1006.21 1005.45 1004.79 1004.22 1003.72 1003.26 1002.82 1002.39 1001.97 1001.60 1001.31 1001.13 1001.08 1001.19 1001.44 1001.82 1002.28 1002.78 1003.28 1003.75 1004.17 1004.55 1004.91 1005.25 1005.63 1006.05 1006.53 1007.07 1007.66 1008.27
1015.10 1014.67 1014.22 1013.75 1013.27 1012.76 1012.19 1011.56 1010.86 1010.08 1009.26 1008.41 1007.58 1006.80 1006.08 1005.44 1004.87 1004.35 1003.87 1003.41 1002.95 1002.50 1002.06 1001.67 1001.35 1001.14 1001.05 1001.10 1001.28 1001.55 1001.90 1002.29 1002.68 1003.06 1003.41 1003.74 1004.07 1004.42 1004.81 1005.26 1005.78 1006.35 1006.96 1007.59
1015.11 1014.59 1014.03 1013.45 1012.84 1012.21 1011.56 1010.87 1010.15 1009.40 1008.64 1007.88 1007.15 1006.46 1005.82 1005.24 1004.70 1004.20 1003.73 1003.26 1002.80 1002.36 1001.95 1001.59 1001.31 1001.13 1001.06 1001.10 1001.24 1001.44 1001.70 1001.97 1002.24 1002.51 1002.76 1003.02 1003.30 1003.62 1004.02 1004.48 1005.02 1005.61 1006.24 1006.87
1015.15 1014.53 1013.86 1013.16 1012.45 1011.74 1011.01 1010.27 1009.53 1008.79 1008.05 1007.32 1006.63 1005.96 1005.34 1004.75 1004.20 1003.68 1003.19 1002.72 1002.29 1001.90 1001.56 1001.30 1001.12 1001.03 1001.04 1001.12 1001.25 1001.42 1001.60 1001.77 1001.93 1002.07 1002.21 1002.37 1002.58 1002.87 1003.24 1003.70 1004.25 1004.85 1005.48 1006.11
1015.24 1014.49 1013.71 1012.91 1012.10 1011.30 1010.50 1009.71 1008.92 1008.14 1007.38 1006.63 1005.90 1005.20 1004.53 1003.89 1003.28 1002.72 1002.20 1001.75 1001.36 1001.06 1000.84 1000.72 1000.69 1000.75 1000.87 1001.04 1001.22 1001.38 1001.51 1001.60 1001.65 1001.68 1001.71 1001.78 1001.91 1002.15 1002.49 1002.94 1003.48 1004.08 1004.72 1005.34
1015.30 1014.44 1013.55 1012.64 1011.74 1010.84 1009.95 1009.08 1008.22 1007.37 1006.52 1005.69 1004.88 1004.08 1003.31 1002.58 1001.90 1001.29 1000.75 1000.32 1000.00 999.81 999.74 999.80 999.95 1000.19 1000.46 1000.75 1001.00 1001.19 1001.31 1001.35 1001.33 1001.27 1001.22 1001.21 1001.28 1001.47 1001.79 1002.22 1002.76 1003.36 1004.00 1004.62
1015.25 1014.28 1013.28 1012.27 1011.27 1010.27 1009.28 1008.30 1007.33 1006.36 1005.40 1004.44 1003.49 1002.57 1001.68 1000.85 1000.09 999.43 998.89 998.50 998.27 998.20 998.30 998.53 998.88 999.30 999.75 1000.17 1000.52 1000.77 1000.91 1000.95 1000.90 1000.80 1000.70 1000.65 1000.70 1000.86 1001.16 1001.59 1002.13 1002.74 1003.39 1004.01
1015.02 1013.96 1012.87 1011.76 1010.65 1009.54 1008.43 1007.31 1006.20 1005.09 1003.98 1002.87 1001.78 1000.72 999.72 998.79 997.96 997.27 996.75 996.41 996.27 996.33 996.58 996.99 997.52 998.11 998.72 999.27 999.74 1000.08 1000.28 1000.36 1000.34 1000.26 1000.17 1000.13 1000.18 1000.36 1000.67 1001.11 1001.66 1002.28 1002.94 1003.58
1014.58 1013.44 1012.27 1011.08 1009.86 1008.63 1007.39 1006.14 1004.88 1003.61 1002.35 1001.09 999.87 998.69 997.59 996.60 995.74 995.04 994.55 994.27 994.22 994.40 994.78 995.33 996.00 996.73 997.47 998.15 998.72 999.16 999.46 999.63 999.68 999.67 999.65 999.68 999.78 1000.01 1000.35 1000.82 1001.39 1002.03 1002.69 1003.34
1013.95 1012.77 1011.55 1010.28 1008.97 1007.63 1006.27 1004.88 1003.48 1002.07 1000.67 999.29 997.97 996.71 995.56 994.54 993.68 993.01 992.56 992.35 992.39 992.65 993.12 993.76 994.52 995.34 996.17 996.94 997.61 998.16 998.56 998.84 999.02 999.13 999.23 999.35 999.55 999.85 1000.25 1000.76 1001.34 1001.99 1002.65 1003.31
1013.22 1012.04 1010.78 1009.46 1008.09 1006.66 1005.19 1003.69 1002.17 1000.66 999.16 997.71 996.33 995.05 993.89 992.89 992.07 991.46 991.08 990.93 991.02 991.33 991.84 992.52 993.31 994.16 995.02 995.85 996.59 997.22 997.74 998.14 998.46 998.72 998.96 999.22 999.53 999.91 1000.38 1000.92 1001.52 1002.16 1002.82 1003.46
1012.54 1011.37 1010.11 1008.77 1007.36 1005.88 1004.34 1002.77 1001.18 999.60 998.06 996.59 995.22 993.96 992.86 991.93 991.19 990.65 990.33 990.24 990.36 990.68 991.18 991.83 992.59 993.41 994.25 995.07 995.84 996.54 997.15 997.68 998.13 998.54 998.93 999.33 999.75 1000.22 1000.73 1001.30 1001.90 1002.52 1003.14 1003.75
1012.00 1010.88 1009.65 1008.33 1006.91 1005.41 1003.86 1002.26 1000.66 999.08 997.55 996.12 994.80 993.63 992.61 991.78 991.14 990.69 990.43 990.37 990.50 990.79 991.24 991.81 992.47 993.21 993.98 994.75 995.51 996.23 996.90 997.52 998.10 998.64 999.16 999.67 1000.19 1000.73 1001.28 1001.85 1002.43 1003.01 1003.59 1004.15
1011.70 1010.65 1009.48 1008.20 1006.82 1005.36 1003.83 1002.26 1000.69 999.17 997.71 996.36 995.14 994.08 993.19 992.48 991.94 991.57 991.37 991.32 991.42 991.66 992.00 992.46 992.99 993.60 994.25 994.94 995.65 996.35 997.05 997.73 998.39 999.03 999.65 1000.25 1000.84 1001.41 1001.98 1002.54 1003.08 1003.61 1004.13 1004.63
1011.65 1010.68 1009.60 1008.41 1007.10 1005.71 1004.26 1002.77 1001.29 999.86 998.51 997.28 996.19 995.26 994.50 993.90 993.46 993.17 993.00 992.95 993.00 993.15 993.38 993.69 994.07 994.53 995.04 995.62 996.24 996.90 997.59 998.29 998.99 999.68 1000.36 1001.01 1001.64 1002.23 1002.79 1003.32 1003.82 1004.29 1004.75 1005.19
1011.80 1010.94 1009.97 1008.88 1007.69 1006.41 1005.07 1003.70 1002.35 1001.05 999.83 998.74 997.79 997.00 996.36 995.87 995.50 995.26 995.11 995.03 995.03 995.08 995.18 995.35 995.58 995.87 996.25 996.70 997.22 997.81 998.46 999.14 999.85 1000.56 1001.26 1001.93 1002.56 1003.14 1003.68 1004.17 1004.62 1005.05 1005.45 1005.84
1012.07 1011.32 1010.47 1009.51 1008.46 1007.32 1006.13 1004.91 1003.71 1002.56 1001.49 1000.54 999.73 999.05 998.52 998.11 997.81 997.59 997.44 997.33 997.26 997.22 997.21 997.24 997.33 997.49 997.73 998.06 998.49 999.01 999.60 1000.24 1000.93 1001.62 1002.31 1002.97 1003.58 1004.14 1004.64 1005.10 1005.51 1005.88 1006.24 1006.59
1012.35 1011.72 1011.00 1010.19 1009.29 1008.31 1007.28 1006.23 1005.19 1004.19 1003.28 1002.46 1001.77 1001.20 1000.75 1000.41 1000.14 999.94 999.77 999.63 999.49 999.38 999.27 999.20 999.19 999.24 999.38 999.62 999.96 1000.40 1000.93 1001.53 1002.17 1002.83 1003.48 1004.10 1004.68 1005.20 1005.67 1006.09 1006.46 1006.81 1007.13 1007.46
1012.56 1012.05 1011.46 1010.80 1010.06 1009.25 1008.38 1007.50 1006.62 1005.78 1005.00 1004.31 1003.72 1003.24 1002.85 1002.55 1002.31 1002.11 1001.93 1001.76 1001.59 1001.42 1001.26 1001.13 1001.05 1001.04 1001.11 1001.28 1001.57 1001.95 1002.42 1002.96 1003.55 1004.16 1004.76 1005.33 1005.86 1006.34 1006.77 1007.15 1007.49 1007.80 1008.11 1008.41
1012.66 1012.26 1011.80 1011.28 1010.69 1010.03 1009.33 1008.60 1007.88 1007.18 1006.53 1005.95 1005.45 1005.04 1004.70 1004.43 1004.21 1004.02 1003.84 1003.66 1003.48 1003.29 1003.12 1002.97 1002.86 1002.82 1002.87 1003.01 1003.25 1003.59 1004.01 1004.50 1005.03 1005.58 1006.12 1006.63 1007.10 1007.53 1007.91 1008.25 1008.55 1008.84 1009.11 1009.39
1012.66 1012.36 1012.01 1011.61 1011.15 1010.64 1010.08 1009.50 1008.91 1008.33 1007.80 1007.31 1006.90 1006.55 1006.26 1006.03 1005.83 1005.66 1005.49 1005.33 1005.16 1005.00 1004.84 1004.71 1004.62 1004.59 1004.63 1004.77 1004.99 1005.30 1005.67 1006.11 1006.57 1007.05 1007.52 1007.96 1008.37 1008.73 1009.05 1009.34 1009.60 1009.84 1010.09 1010.33
1012.60 1012.38 1012.12 1011.82 1011.47 1011.07 1010.64 1010.17 1009.70 1009.24 1008.80 1008.40 1008.06 1007.77 1007.54 1007.35 1007.19 1007.05 1006.92 1006.80 1006.67 1006.55 1006.43 1006.35 1006.29 1006.30 1006.36 1006.50 1006.71 1006.99 1007.33 1007.70 1008.10 1008.50 1008.89 1009.25 1009.58 1009.87 1010.12 1010.35 1010.56 1010.75 1010.94 1011.14
1012.53 1012.37 1012.18 1011.95 1011.68 1011.37 1011.03 1010.66 1010.28 1009.91 1009.56 1009.24 1008.97 1008.75 1008.57 1008.43 1008.32 1008.23 1008.16 1008.09 1008.02 1007.95 1007.90 1007.87 1007.87 1007.90 1007.99 1008.14 1008.34 1008.59 1008.88 1009.19 1009.52 1009.84 1010.14 1010.41 1010.66 1010.87 1011.04 1011.20 1011.34 1011.48 1011.61 1011.75
1012.48 1012.35 1012.20 1012.02 1011.81 1011.56 1011.28 1010.99 1010.69 1010.39 1010.12 1009.88 1009.67 1009.51 1009.40 1009.32 1009.26 1009.23 1009.22 1009.21 1009.20 1009.20 1009.21 1009.23 1009.27 1009.34 1009.45 1009.59 1009.77 1009.98 1010.22 1010.46 1010.71 1010.94 1011.16 1011.34 1011.50 1011.63 1011.73 1011.82 1011.90 1011.97 1012.05 1012.14
1012.45 1012.34 1012.21 1012.05 1011.87 1011.66 1011.43 1011.19 1010.95 1010.72 1010.51 1010.33 1010.19 1010.09 1010.04 1010.02 1010.03 1010.05 1010.10 1010.15 1010.20 1010.25 1010.30 1010.36 1010.43 1010.52 1010.63 1010.76 1010.91 1011.07 1011.24 1011.42 1011.59 1011.74 1011.87 1011.97 1012.05 1012.11 1012.14 1012.17 1012.19 1012.22 1012.25 1012.29
1012.39 1012.29 1012.17 1012.03 1011.86 1011.68 1011.48 1011.28 1011.08 1010.90 1010.75 1010.62 1010.54 1010.50 1010.50 1010.53 1010.59 1010.67 1010.76 1010.86 1010.95 1011.04 1011.13 1011.21 1011.29 1011.38 1011.47 1011.57 1011.67 1011.79 1011.90 1012.00 1012.10 1012.18 1012.24 1012.28 1012.29 1012.29 1012.28 1012.26 1012.25 1012.24 1012.24 1012.26
1012.26 1012.16 1012.04 1011.91 1011.76 1011.60 1011.43 1011.26 1011.10 1010.96 1010.85 1010.77 1010.73 1010.74 1010.78 1010.86 1010.96 1011.07 1011.20 1011.33 1011.44 1011.55 1011.65 1011.73 1011.81 1011.88 1011.95 1012.01 1012.07 1012.13 1012.19 1012.24 1012.27 1012.30 1012.30 1012.30 1012.27 1012.24 1012.20 1012.16 1012.13 1012.12 1012.12 1012.14
Thickness
5722 5729 5732 5735 5738 5735 5730 5725 5720 5732 5739 5758 5768 5772 5777 5781 5782 5784 5785 5787 5788 5788 5788 5787 5786 5785 5784 5782 5778 5774 5770 5766 5763 5760 5758 5755 5751 5748 5745 5742 5739 5736 5733 5730
5714 5724 5726 5727 5735 5736 5736 5734 5732 5737 5742 5762 5766 5767 5769 5772 5774 5775 5778 5780 5782 5782 5782 5782 5781 5780 5778 5776 5773 5769 5764 5761 5758 5755 5753 5750 5748 5744 5740 5737 5734 5730 5727 5725
5691 5706 5713 5708 5726 5730 5732 5736 5734 5731 5744 5754 5754 5757 5761 5765 5767 5768 5771 5774 5775 5775 5775 5776 5776 5776 5773 5771 5768 5765 5761 5757 5753 5750 5747 5746 5743 5739 5736 5732 5728 5724 5722 5719
5673 5688 5682 5710 5729 5732 5729 5730 5732 5735 5741 5746 5749 5753 5757 5760 5760 5762 5764 5766 5767 5767 5767 5767 5769 5769 5768 5765 5761 5759 5756 5752 5749 5745 5743 5741 5737 5734 5730 5726 5723 5719 5716 5714
5659 5665 5680 5704 5718 5720 5716 5718 5727 5726 5731 5736 5741 5743 5745 5752 5755 5757 5759 5760 5761 5761 5760 5761 5761 5761 5759 5757 5754 5751 5749 5746 5744 5742 5738 5735 5731 5728 5724 5720 5716 5713 5710 5708
5651 5657 5662 5692 5713 5719 5713 5704 5719 5719 5720 5724 5728 5722 5732 5743 5747 5749 5751 5752 5752 5753 5751 5750 5750 5750 5749 5748 5745 5743 5742 5740 5739 5736 5732 5729 5725 5721 5717 5714 5710 5707 5704 5701
5645 5650 5666 5691 5704 5708 5688 5693 5711 5712 5712 5715 5716 5720 5728 5733 5735 5738 5740 5742 5743 5742 5740 5740 5740 5739 5738 5738 5737 5736 5735 5733 5730 5728 5725 5722 5717 5714 5710 5705 5702 5699 5696 5693
5636 5640 5656 5689 5690 5685 5687 5698 5701 5704 5706 5707 5710 5716 5721 5723 5725 5727 5729 5731 5732 5730 5729 5729 5730 5729 5727 5727 5728 5727 5725 5723 5721 5719 5716 5713 5708 5705 5701 5697 5693 5689 5685 5682
5643 5651 5669 5677 5680 5685 5686 5688 5693 5695 5698 5701 5703 5707 5710 5712 5714 5716 5718 5720 5721 5721 5719 5719 5719 5720 5717 5717 5717 5716 5715 5713 5710 5708 5705 5703 5699 5695 5692 5688 5684 5680 5676 5672
5639 5653 5663 5670 5675 5679 5682 5684 5688 5690 5692 5695 5695 5697 5700 5701 5703 5705 5708 5709 5710 5709 5709 5708 5708 5709 5708 5708 5707 5705 5703 5702 5700 5697 5694 5692 5689 5686 5683 5679 5675 5671 5667 5664
5634 5647 5655 5663 5667 5671 5674 5678 5680 5682 5684 5686 5687 5688 5688 5690 5692 5695 5696 5697 5698 5698 5698 5698 5698 5698 5698 5698 5696 5693 5691 5690 5688 5687 5684 5681 5678 5676 5674 5671 5668 5663 5660 5656
5631 5642 5642 5650 5659 5663 5664 5667 5671 5673 5674 5677 5679 5679 5680 5680 5683 5684 5684 5684 5686 5687 5687 5688 5688 5688 5688 5688 5686 5684 5681 5680 5678 5676 5674 5671 5668 5664 5662 5660 5657 5654 5651 5648
5635 5641 5641 5648 5652 5656 5657 5660 5663 5666 5667 5667 5669 5670 5671 5671 5672 5673 5673 5674 5676 5677 5678 5678 5678 5678 5678 5678 5677 5675 5673 5671 5669 5666 5663 5660 5657 5654 5650 5647 5644 5641 5639 5637
5634 5636 5637 5641 5644 5649 5651 5653 5654 5657 5658 5659 5660 5660 5661 5661 5662 5663 5664 5666 5668 5668 5669 5669 5668 5668 5668 5667 5667 5665 5663 5662 5660 5656 5653 5650 5647 5644 5641 5638 5634 5630 5627 5625
5629 5631 5632 5636 5639 5641 5643 5644 5644 5645 5647 5648 5649 5650 5651 5651 5652 5653 5655 5657 5658 5658 5658 5658 5657 5657 5658 5658 5656 5654 5653 5651 5649 5646 5644 5641 5637 5634 5631 5627 5624 5621 5618 5615
5623 5625 5627 5629 5631 5633 5635 5636 5636 5637 5638 5639 5639 5641 5642 5643 5643 5644 5646 5648 5648 5648 5647 5647 5647 5648 5648 5648 5646 5644 5643 5642 5640 5637 5634 5631 5628 5625 5621 5618 5614 5611 5609 5606
5615 5617 5620 5621 5624 5625 5628 5629 5630 5630 5631 5631 5631 5633 5634 5634 5634 5635 5637 5638 5639 5639 5638 5638 5638 5639 5639 5638 5637 5635 5633 5631 5630 5627 5625 5622 5619 5616 5613 5609 5606 5604 5601 5598
5615 5616 5618 5619 5618 5619 5622 5623 5623 5624 5624 5625 5625 5624 5625 5625 5625 5626 5628 5629 5629 5629 5630 5631 5631 5630 5630 5629 5626 5625 5623 5621 5619 5618 5616 5613 5610 5607 5604 5601 5598 5596 5594 5591
5612 5613 5613 5613 5614 5615 5616 5617 5617 5617 5618 5619 5618 5617 5618 5618 5618 5619 5619 5620 5620 5621 5623 5624 5623 5623 5623 5621 5618 5616 5614 5612 5611 5609 5607 5604 5601 5598 5595 5593 5591 5588 5586 5584
5609 5609 5608 5609 5610 5610 5611 5612 5612 5611 5612 5612 5611 5610 5609 5610 5611 5611 5611 5612 5614 5616 5616 5617 5616 5616 5615 5613 5612 5610 5608 5606 5604 5601 5599 5596 5593 5590 5588 5585 5583 5581 5578 5577
5604 5604 5605 5605 5605 5606 5607 5606 5606 5605 5605 5604 5604 5604 5603 5603 5603 5604 5604 5605 5607 5609 5610 5610 5610 5609 5608 5606 5605 5603 5601 5599 5596 5593 5591 5589 5585 5582 5580 5578 5576 5574 5572 5570
5600 5600 5600 5600 5600 5600 5601 5601 5601 5600 5600 5599 5599 5599 5598 5598 5598 5599 5600 5601 5602 5603 5603 5603 5603 5602 5601 5599 5597 5595 5593 5590 5588 5586 5584 5582 5579 5576 5574 5572 5570 5567 5565 5563
5595 5597 5597 5597 5597 5596 5596 5597 5597 5597 5597 5596 5596 5595 5595 5595 5595 5595 5595 5596 5597 5597 5597 5597 5596 5595 5594 5593 5590 5587 5585 5583 5582 5580 5578 5576 5573 5571 5568 5567 5564 5561 5559 5556
5592 5593 5593 5593 5593 5593 5593 5594 5594 5594 5594 5594 5594 5594 5593 5592 5592 5592 5592 5592 5592 5592 5591 5589 5590 5590 5589 5587 5584 5581 5579 5578 5576 5575 5572 5570 5568 5565 5563 5560 5558 5556 5553 5551
5589 5590 5591 5591 5591 5591 5591 5591 5591 5591 5590 5590 5591 5591 5591 5591 5590 5589 5588 5588 5587 5587 5586 5585 5585 5584 5582 5580 5577 5575 5574 5572 5570 5568 5566 5564 5561 5559 5556 5554 5552 5550 5547 5544
5587 5588 5589 5589 5589 5589 5589 5590 5589 5588 5587 5587 5587 5588 5587 5587 5586 5585 5584 5583 5582 5581 5580 5579 5578 5576 5574 5573 5571 5569 5568 5565 5563 5561 5559 5557 5555 5552 5550 5548 5545 5543 5540 5538
5586 5585 5585 5586 5587 5587 5587 5587 5586 5585 5585 5584 5583 5583 5583 5582 5581 5580 5579 5578 5576 5575 5574 5573 5571 5569 5568 5567 5565 5563 5561 5559 5557 5555 5553 5550 5549 5547 5544 5542 5539 5536 5533 5531